Terminal Aerodrome Forecast
Issued by NWS State College, PA

Home | Current Version | Previous Version | Text Only | Print | Product List | Glossary On
Versions: 1 2 3 4 5 6 7 8 9 10 11 12 13 14 15 16 17 18 19 20 21 22 23 24 25 26 27 28 29 30 31 32 33 34 35 36 37 38 39 40 41 42 43 44 45 46 47 48 49 50
000
FTUS41 KCTP 222132 AAB
TAFMDT
TAF AMD
KMDT 222132Z 2222/2318 00000KT P6SM FEW020 OVC035
     FM230000 11005KT 6SM BR OVC025
     FM230300 11006KT 4SM -RA OVC015
     FM230600 10006KT 2SM -RA OVC008=

USA.gov is the U.S. government's official web portal to all federal, state and local government web resources and services.